sat.trackr.live / text

‹ back to catalog

STARLINK-4309

NORAD 53066 · 2022-077Z

PAYLOAD ACTIVE UNKNOWN

§ Identity

Operator
Country
US
Launch date
2022-07-11
Launch site
AFWTR
Launch vehicle
Mass (kg)
RCS (m²)

Purposes: comms

External: N2YO · Heavens-Above · Gunter

§ Orbital elements

Epoch: 2026-05-25T01:51:10.364256Z

Period
95.64 min
Inclination
97.4478°
Eccentricity
0.0001481
Mean motion
15.05657883 rev/d
Perigee alt
548.5 km
Apogee alt
550.5 km
Semi-major
6,927.6 km
B*
6.3611e-5
RAAN
325.0366°
Arg perigee
91.5459°
Mean anomaly
268.5937°
Rev number
21,240

§ Raw data

STARLINK-43091 53066U 22077Z   26145.07720329  .00000860  00000+0  63611-4 0  99902 53066  97.4478 325.0366 0001481  91.5459 268.5937 15.05657883212400

JSON: /api/v1/satellites/53066 · /tle

For live sub-satellite position, see the globe view (requires WebGL).

§ Visibility from observer

Set your observer location to see the next 7 days of passes ≥ 10°. The values pass through the URL so the page stays shareable.

No JS? Fill the form by hand. The geolocation button needs JavaScript.